This is the latest recevied weather packets stored in our database for station/object AI5KP-13. If no packets are shown the sender has not sent any weather packets the latest 10 day(s).
| Time | Temp. | Humidity | Pressure | Rain* | Wind** | Luminosity | Snow |
|---|---|---|---|---|---|---|---|
| 1777568044 | 15.56° C | 60% | 1018.2 hPa | 0 mm | - | 251 W/m² | - |
| 1777567740 | 16.11° C | 60% | 1018 hPa | 0 mm | - | 254 W/m² | - |
| 1777567437 | 15.56° C | 60% | 1018.2 hPa | 0 mm | - | 263 W/m² | - |
| 1777567135 | 15.56° C | 58% | 1018.1 hPa | 0 mm | - | 279 W/m² | - |
| 1777566833 | 15.56° C | 60% | 1018 hPa | 0 mm | - | 274 W/m² | - |
| 1777566530 | 15.56° C | 58% | 1018.4 hPa | 0 mm | - | 279 W/m² | - |
| 1777566228 | 16.11° C | 59% | 1018.1 hPa | 0 mm | - | 276 W/m² | - |
| 1777565924 | 15.56° C | 60% | 1018.4 hPa | 0 mm | - | 285 W/m² | - |
| 1777565620 | 16.67° C | 60% | 1018.3 hPa | 0 mm | - | 288 W/m² | - |
| 1777565317 | 16.67° C | 58% | 1018.4 hPa | 0 mm | - | 315 W/m² | - |
| 1777565012 | 16.11° C | 62% | 1018 hPa | 0 mm | - | 298 W/m² | - |
| 1777564708 | 15.56° C | 61% | 1018.2 hPa | 0 mm | - | 306 W/m² | - |
| 1777564404 | 16.11° C | 59% | 1018.1 hPa | 0 mm | - | 453 W/m² | - |
| 1777564100 | 16.11° C | 59% | 1018.1 hPa | 0 mm | - | 436 W/m² | - |
| 1777563796 | 15.56° C | 60% | 1017.9 hPa | 0 mm | - | 446 W/m² | - |
| 1777563492 | 15.56° C | 60% | 1017.8 hPa | 0 mm | - | 454 W/m² | - |
| 1777563191 | 16.11° C | 61% | 1017.8 hPa | 0 mm | - | 524 W/m² | - |
| 1777562889 | 15.56° C | 60% | 1017.8 hPa | 0 mm | - | 439 W/m² | - |
| 1777562585 | 15.56° C | 60% | 1017.8 hPa | 0 mm | - | 313 W/m² | - |
| 1777562284 | 15° C | 62% | 1017.7 hPa | 0 mm | - | 481 W/m² | - |
| 1777561980 | 15° C | 60% | 1017.7 hPa | 0 mm | - | 389 W/m² | - |
| 1777561678 | 15° C | 63% | 1018.1 hPa | 0 mm | - | 323 W/m² | - |
| 1777561373 | 15° C | 63% | 1017.9 hPa | 0 mm | - | 306 W/m² | - |
| 1777561068 | 16.11° C | 60% | 1018.1 hPa | 0 mm | - | 335 W/m² | - |
| 1777560764 | 16.11° C | 60% | 1018.3 hPa | 0 mm | - | 416 W/m² | - |
* Rain latest hour (hover to see other rain measurements)
** Current wind speed in m/s (hover to see current wind gust speed)